Tracking 32938 objects as of 13-Jan-2026
HD Live streaming from Space Station
objects crossing your sky now

SL-6 R/B(2)

Track SL-6 R/B(2) now!


NORAD ID: 7629
Int'l Code: 1975-007D
Perigee: 6,033.6 km
Apogee: 34,291.7 km
Inclination: 68.9 °
Period: 716.9 minutes
Semi major axis: 26533 km
RCS: 7.0447 m2 (large)
Launch date: January 30, 1975
Source: Commonwealth of Independent States (former USSR) (CIS)
Launch site: PLESETSK MISSILE AND SPACE COMPLEX (PKMTR)

Note: This is a ROCKET BODY
Your satellite tracking list
Your tracking list is empty




NASA's NSSDC Master Catalog

Two Line Element Set (TLE):
1 07629U 75007D   26012.27818697  .00000505  00000-0  00000-0 0  9992
2 07629  68.9230 239.2572 5324941 304.7462 298.7891  2.00866372234869
Source of the keplerian elements: AFSPC